Cloud_Cover
98 100 100 100 100 100 100 100 100 100 100 100 100 100 100 100 100 100 100 100 100 100 100 100 100 100 100 100 100 100 100 100 100 100 100 100 100 100 100 100 100 100 100
100 100 100 100 100 100 100 100 100 100 100 100 100 100 100 100 100 100 100 100 100 100 100 71 100 100 100 100 100 100 100 100 100 100 100 100 100 100 100 100 100 100 100
100 100 100 100 100 100 100 100 100 100 100 100 100 100 100 100 100 100 100 100 82 100 100 100 100 100 100 100 100 100 100 100 100 100 100 100 100 100 86 100 100 100 100
100 100 100 100 100 100 100 100 100 100 100 100 100 100 100 100 100 100 100 67 100 100 100 100 100 100 100 100 100 100 100 100 100 100 100 100 100 100 100 100 100 100 100
100 100 100 100 100 100 100 100 100 100 100 100 100 100 100 100 100 100 100 100 100 100 100 100 100 100 100 89 100 100 100 100 100 100 100 100 100 100 100 100 100 100 100
97 100 100 100 100 100 100 100 100 100 100 100 100 100 100 100 100 100 100 100 100 100 100 100 97 100 100 100 100 100 100 100 100 100 100 100 100 100 100 100 100 100 100
100 100 94 100 100 100 100 100 100 100 100 100 100 100 100 100 100 100 100 100 100 100 100 100 100 100 100 100 100 100 100 100 100 100 100 100 100 100 100 100 100 100 100
100 100 100 93 99 99 100 100 100 100 100 100 100 100 100 100 100 100 100 100 100 100 100 100 100 100 100 100 100 100 100 100 100 100 100 100 100 100 100 100 100 100 100
100 100 100 100 100 100 99 100 100 100 100 100 100 100 100 100 100 100 100 100 100 100 100 100 100 100 100 99 100 100 100 100 100 100 100 100 100 100 100 100 100 100 100
100 100 100 100 100 100 99 100 100 100 100 100 100 100 100 100 100 100 100 100 100 100 100 100 100 100 100 100 100 100 100 100 100 100 100 100 100 100 100 100 100 100 100
100 100 100 100 100 100 100 100 100 100 100 100 100 100 100 100 100 100 100 100 100 100 100 100 100 100 100 100 100 100 100 100 100 100 100 100 100 100 100 100 100 100 100
100 100 100 100 100 100 100 100 100 100 100 100 100 100 100 100 100 100 100 100 100 100 100 100 100 100 100 100 100 100 100 100 100 100 100 100 100 100 100 100 100 100 100
27 99 100 100 100 100 100 100 100 100 100 100 100 100 100 100 100 99 100 100 100 100 100 100 100 100 100 100 100 100 100 100 100 100 100 100 100 100 100 100 100 100 100
100 68 5 22 78 100 100 100 100 100 100 100 100 96 86 84 78 65 75 93 100 100 100 100 100 100 100 100 100 100 100 100 100 100 100 100 100 100 100 100 100 100 100
100 100 84 5 5 31 80 100 100 100 100 100 100 100 100 97 100 100 83 81 91 100 100 100 100 100 100 100 100 100 100 100 100 100 100 100 100 100 100 100 100 100 100
99 99 95 93 5 5 5 8 76 100 100 100 100 100 100 100 100 92 94 87 98 100 100 100 100 100 100 100 100 100 100 100 100 100 97 100 100 100 100 100 100 100 100
98 85 86 81 94 90 26 5 45 5 24 94 99 100 100 100 100 100 98 87 100 100 100 100 100 100 100 100 100 100 100 100 100 100 100 100 100 100 100 100 100 100 100
56 44 99 93 86 66 56 59 62 80 77 27 10 86 99 100 100 98 38 5 46 100 100 100 100 100 100 100 100 100 100 100 100 100 100 100 100 100 100 100 100 100 100
10 34 68 87 91 85 57 44 63 56 54 44 9 6 6 82 74 78 32 57 94 100 100 100 100 100 100 100 100 100 100 100 100 100 100 100 100 100 100 100 100 100 100
57 30 60 73 98 72 52 56 58 57 54 56 60 82 34 5 44 67 59 34 77 98 100 100 100 100 100 100 100 100 100 100 100 100 100 100 100 100 100 100 100 100 100
70 65 69 62 68 92 93 70 63 66 92 100 100 90 6 28 89 96 96 96 79 80 80 79 99 100 100 100 100 100 100 100 100 100 100 100 93 67 20 97 100 100 100
76 60 82 81 57 66 91 100 100 75 74 86 96 56 36 13 5 5 30 97 100 83 82 78 82 80 98 100 100 100 100 100 100 100 100 100 100 100 100 100 60 14 6
78 75 71 63 29 57 86 98 100 96 81 97 63 47 62 100 98 50 77 99 100 98 98 95 95 96 100 99 92 80 74 94 100 100 100 100 100 100 100 100 100 100 100
68 70 60 74 85 82 93 100 100 100 90 92 98 87 88 100 100 100 100 100 89 100 100 100 100 97 87 86 67 59 54 26 13 65 100 47 15 16 21 19 56 52 31
73 99 99 100 100 100 86 92 100 100 100 98 100 99 100 100 94 100 100 100 100 100 100 100 98 97 88 80 78 67 45 60 9 46 71 60 5 19 5 5 5 5 21
57 76 82 73 79 100 100 99 93 97 100 100 100 100 100 100 100 100 100 87 100 98 100 100 86 74 56 31 51 74 47 59 10 6 75 49 16 27 54 16 12 52 23